Regional Weather Roundup
Issued by NWS

Home | Current Version | Previous Version | Graphics & Text | Print | Product List | Glossary On
Versions: 1 2 3 4 5 6 7 8 9 10 11 12 13 14 15 16 17 18 19 20 21 22 23 24 25 26 27 28 29 30 31 32 33 34 35 36 37 38 39 40 41 42 43 44 45 46 47 48 49 50
000
ASUS43 KLMK 181910
RWRKY
KENTUCKY REGIONAL WEATHER ROUNDUP
NATIONAL WEATHER SERVICE LOUISVILLE KY
200 PM EST THU DEC 18 2014

NOTE "FAIR" INDICATES FEW OR NO CLOUDS BELOW 12,000 FEET
WITH NO SIGNIFICANT WEATHER AND/OR OBSTRUCTIONS TO VISIBILITY.

KYZ001>023-026-027-061>063-070>075-182000-
WESTERN AND SOUTH CENTRAL KENTUCKY

CITY           SKY/WX    TMP DP  RH WIND       PRES   REMARKS
PADUCAH        CLOUDY    35  31  85 E5        30.24F WCI  31
HENDERSON      CLOUDY    34  25  69 NW5       30.25F WCI  30
OWENSBORO      CLOUDY    33  27  79 NW7       30.25F WCI  27
HOPKINSVILLE   CLOUDY    34  30  86 N3        30.23F
BOWLING GREEN  CLOUDY    35  26  69 N3        30.25F
GLASGOW        CLOUDY    33  27  76 CALM      30.22F
$$

KYZ024-025-028>034-038-045-046-053-182000-
NORTH CENTRAL KENTUCKY

CITY           SKY/WX    TMP DP  RH WIND       PRES   REMARKS
LOUISVILLE/SDF CLOUDY    33  23  66 CALM      30.23F
LOUISVILLE/LOU CLOUDY    31  23  72 CALM      30.24F
FORT KNOX      MOSUNNY   32  24  73 NW1       30.20F
$$

KYZ035>037-039>044-047>052-055>060-089>105-182000-
NORTHEAST KENTUCKY

CITY           SKY/WX    TMP DP  RH WIND       PRES   REMARKS
LEXINGTON      CLOUDY    31  23  72 N5        30.22S WCI  26
COVINGTON      FLURRIES  28  19  69 CALM      30.22F
FRANKFORT      CLOUDY    31  22  69 CALM      30.22F
$$

KYZ054-064>069-076>088-106>120-182000-
SOUTHEAST KENTUCKY

CITY           SKY/WX    TMP DP  RH WIND       PRES   REMARKS
JACKSON        CLOUDY    35  24  64 W5        30.16F WCI  31
LONDON         CLOUDY    36  26  67 NW3       30.18S
SOMERSET       CLOUDY    34  28  80 N3        30.21F
MIDDLESBORO    CLOUDY    41  29  61 CALM      30.15F
MONTICELLO     CLOUDY    37  29  73 CALM      30.22F
$$



USA.gov is the U.S. government's official web portal to all federal, state and local government web resources and services.